Simultaneous Nadir Overpasses (SNOs) Predictions

Prediction of SNOs between METOP-A and NOAA-19 Satellite Orbit:

Table of predicted SNOs for the next 14.0 days since TLE Epoch: 1/16/2016
Index Date (METOP-A) Time (METOP-A) Lat,Lon (METOP-A) SZA (METOP-A ) Date (NOAA-19) Time (NOAA-19) Lat,Lon (NOAA-19) SZA (NOAA-19 ) Distance(km) Time Diff (sec)
1 01/23/2016 17:44:12 -76.09, 94.19 84.53 01/23/2016 17:43:04 -76.08, 91.62 84.49 68.61 68
2 01/23/2016 18:35:01 75.69, -99.82 95.08 01/23/2016 18:33:56 75.68, -99.74 95.08 2.29 65
3 01/23/2016 19:25:42 -75.70, 67.56 84.92 01/23/2016 19:24:58 -75.71, 67.42 84.90 3.92 44
4 01/23/2016 20:16:23 75.67,-125.22 95.05 01/23/2016 20:15:58 75.67,-125.20 95.05 0.42 25
5 01/23/2016 21:07:05 -75.64, 42.01 84.99 01/23/2016 21:06:59 -75.65, 42.10 84.98 3.09 6
6 01/23/2016 21:57:45 75.65,-150.62 95.02 01/23/2016 21:58:00 75.66,-150.67 95.02 1.60 15
7 01/23/2016 22:48:27 -75.62, 16.61 85.03 01/23/2016 22:49:01 -75.64, 16.63 85.01 2.56 34
8 01/23/2016 23:39:07 75.63,-176.02 94.98 01/23/2016 23:40:02 75.65,-176.14 94.99 3.54 55
9 01/24/2016 00:29:49 -75.60, -8.79 85.06 01/24/2016 00:31:03 -75.63, -8.84 85.04 3.46 74




NCC Satellite Simultaneous Nadir Overpasses (SNOs) Prediction Service
